Location: Saluda
(35.2377°N, 82.3468°W)
Time: 17:24:59
(UTC+00:00)

Transit 2A - Pass Details

Date: 05 October 2022
Orbit: 598 x 959 km, 66.7° (Epoch: 06 December)

Event Time Altitude Azimuth Distance (km) Brightness Sun altitude
Rises 11:29:49 0° 354° (N) 2,978 8.9 -0.3°
Reaches altitude 10° 11:33:17 10° 21° (NNE) 2,132 8.5 0.4°
Maximum altitude 11:35:38 13° 51° (NE) 1,956 8.9 0.8°
Drops below altitude 10° 11:38:05 10° 80° (E) 2,235 10.1 1.3°
Sets 11:41:52 0° 106° (ESE) 3,248 11.8 2.1°
